This is the latest recevied weather packets stored in our database for station/object W2JBO-5. If no packets are shown the sender has not sent any weather packets the latest 10 day(s).
| Time | Temp. | Humidity | Pressure | Rain* | Wind** | Luminosity | Snow |
|---|---|---|---|---|---|---|---|
| 1777849574 | 23.33° C | 48% | - | 0 mm | - | - | - |
| 1777849271 | 23.33° C | 47% | - | 0 mm | - | - | - |
| 1777848969 | 23.33° C | 48% | - | 0 mm | - | - | - |
| 1777848668 | 23.33° C | 44% | - | 0 mm | - | - | - |
| 1777848366 | 23.33° C | 45% | - | 0 mm | - | - | - |
| 1777848064 | 23.33° C | 45% | 1018.6 hPa | 0 mm | - | 27 W/m² | - |
| 1777847762 | 23.33° C | 43% | 1018.6 hPa | 0 mm | - | 28 W/m² | - |
| 1777847456 | 23.33° C | 43% | 1018.6 hPa | 0 mm | - | 29 W/m² | - |
| 1777847155 | 23.89° C | 42% | 1018.6 hPa | 0 mm | - | 33 W/m² | - |
| 1777846852 | 23.89° C | 43% | 1018.6 hPa | 0 mm | - | 41 W/m² | - |
| 1777846550 | 23.89° C | 46% | 1018.6 hPa | 0 mm | - | 37 W/m² | - |
| 1777846248 | 23.89° C | 45% | 1018.6 hPa | 0 mm | - | 39 W/m² | - |
| 1777845944 | 23.89° C | 44% | 1018.6 hPa | 0 mm | - | 35 W/m² | - |
| 1777845641 | 23.89° C | 43% | 1018.6 hPa | 0 mm | - | 62 W/m² | - |
| 1777845338 | 23.89° C | 44% | 1018.6 hPa | 0 mm | - | 35 W/m² | - |
| 1777845035 | 23.89° C | 45% | 1018.6 hPa | 0 mm | - | 34 W/m² | - |
| 1777844733 | 23.89° C | 44% | 1018.6 hPa | 0 mm | - | 38 W/m² | - |
| 1777844429 | 23.89° C | 44% | 1018.5 hPa | 0 mm | - | 34 W/m² | - |
| 1777844128 | 23.89° C | 42% | - | 0 mm | - | - | - |
| 1777843824 | 23.89° C | 43% | - | 0 mm | - | - | - |
| 1777843521 | 23.89° C | 43% | - | 0 mm | - | - | - |
| 1777843219 | 23.89° C | 43% | 1019.6 hPa | 0 mm | - | 45 W/m² | - |
| 1777842916 | 23.89° C | 41% | 1019.6 hPa | 0 mm | - | 41 W/m² | - |
| 1777842611 | 23.89° C | 47% | 1019.6 hPa | 0 mm | - | 46 W/m² | - |
| 1777842308 | 23.89° C | 42% | 1019.6 hPa | 0 mm | - | 43 W/m² | - |
* Rain latest hour (hover to see other rain measurements)
** Current wind speed in m/s (hover to see current wind gust speed)